| time (UTC) | temp C | wind direction | speed KPH | gust KPH | rain 1hr cm | rain 24hr cm | rain mn cm | humidity % | barometer mb |
| 20260831213101 | 23 | 160 | 1.6 | 20.9 | 0.00 | 0.00 | 0.00 | 30 | 1021.1 |
| 20260831212556 | 23 | 69 | 9.7 | 20.9 | 0.00 | 0.00 | 0.00 | 30 | 1020.9 |
| 20260831212059 | 23 | 134 | 4.8 | 20.9 | 0.00 | 0.00 | 0.00 | 31 | 1021.0 |
| 20260831211606 | 23 | 123 | 8.0 | 27.4 | 0.00 | 0.00 | 0.00 | 30 | 1021.1 |
| 20260831211057 | 23 | 148 | 9.7 | 27.4 | 0.00 | 0.00 | 0.00 | 30 | 1021.0 |
| 20260831210556 | 23 | 76 | 9.7 | 27.4 | 0.00 | 0.00 | 0.00 | 30 | 1021.2 |
| 20260831210106 | 23 | 32 | 11.3 | 20.9 | 0.00 | 0.00 | 0.00 | 30 | 1021.1 |
| 20260831205559 | 23 | 97 | 9.7 | 29.0 | 0.00 | 0.00 | 0.00 | 32 | 1021.1 |
| 20260831205057 | 23 | 129 | 9.7 | 29.0 | 0.00 | 0.00 | 0.00 | 32 | 1021.2 |
| 20260831204603 | 23 | 30 | 11.3 | 30.6 | 0.00 | 0.00 | 0.00 | 32 | 1021.3 |
| 20260831204057 | 23 | 117 | 11.3 | 30.6 | 0.00 | 0.00 | 0.00 | 32 | 1021.3 |
| 20260831203557 | 22 | 140 | 12.9 | 30.6 | 0.00 | 0.00 | 0.00 | 32 | 1021.3 |
| 20260831203107 | 22 | 164 | 12.9 | 30.6 | 0.00 | 0.00 | 0.00 | 32 | 1021.3 |
| 20260831202558 | 22 | 97 | 12.9 | 30.6 | 0.00 | 0.00 | 0.00 | 33 | 1021.2 |
| 20260831202058 | 22 | 55 | 11.3 | 37.0 | 0.00 | 0.00 | 0.00 | 32 | 1021.4 |
| 20260831201603 | 22 | 136 | 12.9 | 37.0 | 0.00 | 0.00 | 0.00 | 33 | 1021.4 |
| 20260831201058 | 22 | 175 | 12.9 | 29.0 | 0.00 | 0.00 | 0.00 | 33 | 1021.4 |
| 20260831200558 | 22 | 68 | 14.5 | 25.7 | 0.00 | 0.00 | 0.00 | 33 | 1021.4 |
| 20260831200107 | 22 | 104 | 9.7 | 32.2 | 0.00 | 0.00 | 0.00 | 34 | 1021.5 |
| 20260831195558 | 22 | 51 | 17.7 | 32.2 | 0.00 | 0.00 | 0.00 | 33 | 1021.4 |
| 20260831195057 | 21 | 113 | 16.1 | 29.0 | 0.00 | 0.00 | 0.00 | 33 | 1021.6 |
| 20260831194640 | 21 | 107 | 16.1 | 30.6 | 0.00 | 0.00 | 0.00 | 33 | 1021.7 |
| 20260831194057 | 22 | 104 | 12.9 | 30.6 | 0.00 | 0.00 | 0.00 | 33 | 1021.7 |
| 20260831193558 | 22 | 69 | 14.5 | 30.6 | 0.00 | 0.00 | 0.00 | 32 | 1021.7 |
| 20260831193104 | 21 | 100 | 12.9 | 33.8 | 0.00 | 0.00 | 0.00 | 34 | 1021.8 |
| 20260831192558 | 21 | 104 | 16.1 | 33.8 | 0.00 | 0.00 | 0.00 | 33 | 1021.9 |
| 20260831192058 | 21 | 96 | 14.5 | 27.4 | 0.00 | 0.00 | 0.00 | 33 | 1021.8 |
| 20260831191608 | 21 | 68 | 16.1 | 33.8 | 0.00 | 0.00 | 0.00 | 33 | 1022.1 |
| 20260831191058 | 21 | 153 | 14.5 | 33.8 | 0.00 | 0.00 | 0.00 | 33 | 1022.0 |
| 20260831190558 | 21 | 119 | 16.1 | 29.0 | 0.00 | 0.00 | 0.00 | 32 | 1022.2 |
| 20260831190130 | 21 | 148 | 16.1 | 29.0 | 0.00 | 0.00 | 0.00 | 32 | 1022.1 |
| 20260831185558 | 21 | 175 | 11.3 | 30.6 | 0.00 | 0.00 | 0.00 | 33 | 1022.1 |
| 20260831185058 | 21 | 139 | 17.7 | 40.2 | 0.00 | 0.00 | 0.00 | 32 | 1022.3 |
| 20260831184614 | 21 | 115 | 12.9 | 40.2 | 0.00 | 0.00 | 0.00 | 33 | 1022.2 |
| 20260831184059 | 21 | 95 | 14.5 | 32.2 | 0.00 | 0.00 | 0.00 | 32 | 1022.2 |
| 20260831183559 | 21 | 117 | 9.7 | 25.7 | 0.00 | 0.00 | 0.00 | 32 | 1022.3 |
| 20260831183111 | 21 | 106 | 16.1 | 25.7 | 0.00 | 0.00 | 0.00 | 32 | 1022.3 |
| 20260831182601 | 21 | 122 | 11.3 | 22.5 | 0.00 | 0.00 | 0.00 | 32 | 1022.3 |
| 20260831182058 | 21 | 19 | 11.3 | 22.5 | 0.00 | 0.00 | 0.00 | 32 | 1022.4 |
| 20260831181606 | 21 | 119 | 9.7 | 22.5 | 0.00 | 0.00 | 0.00 | 32 | 1022.4 |
| 20260831181058 | 21 | 153 | 9.7 | 25.7 | 0.00 | 0.00 | 0.00 | 31 | 1022.4 |
| 20260831180559 | 21 | 110 | 8.0 | 27.4 | 0.00 | 0.00 | 0.00 | 32 | 1022.4 |
| 20260831180109 | 21 | 26 | 12.9 | 27.4 | 0.00 | 0.00 | 0.00 | 31 | 1022.3 |
| 20260831175600 | 22 | 60 | 8.0 | 22.5 | 0.00 | 0.00 | 0.00 | 30 | 1022.3 |
| 20260831175058 | 22 | 276 | 3.2 | 8.0 | 0.00 | 0.00 | 0.00 | 31 | 1022.4 |
| 20260831174639 | 22 | 0 | 1.6 | 6.4 | 0.00 | 0.00 | 0.00 | 29 | 1022.3 |
| 20260831174058 | 22 | 352 | 1.6 | 6.4 | 0.00 | 0.00 | 0.00 | 30 | 1022.4 |
| 20260831173558 | 21 | 349 | 1.6 | 6.4 | 0.00 | 0.00 | 0.00 | 30 | 1022.4 |
| 20260831173105 | 21 | 311 | 1.6 | 6.4 | 0.00 | 0.00 | 0.00 | 30 | 1022.4 |
| 20260831172558 | 21 | 56 | 1.6 | 6.4 | 0.00 | 0.00 | 0.00 | 32 | 1022.6 |
| 20260831172058 | 20 | 306 | 3.2 | 8.0 | 0.00 | 0.00 | 0.00 | 34 | 1022.6 |
| 20260831171604 | 20 | 74 | 0.0 | 8.0 | 0.00 | 0.00 | 0.00 | 35 | 1022.6 |
| 20260831171058 | 21 | 51 | 0.0 | 3.2 | 0.00 | 0.00 | 0.00 | 33 | 1022.5 |
| 20260831170558 | 20 | 244 | 0.0 | 4.8 | 0.00 | 0.00 | 0.00 | 34 | 1022.6 |
| 20260831170107 | 19 | 290 | 0.0 | 4.8 | 0.00 | 0.00 | 0.00 | 39 | 1022.5 |
| 20260831165559 | 18 | 44 | 0.0 | 6.4 | 0.00 | 0.00 | 0.00 | 41 | 1022.5 |
| 20260831165058 | 18 | 53 | 3.2 | 6.4 | 0.00 | 0.00 | 0.00 | 44 | 1022.6 |
| 20260831164605 | 18 | 42 | 1.6 | 4.8 | 0.00 | 0.00 | 0.00 | 42 | 1022.6 |
| 20260831164100 | 18 | 0 | 1.6 | 6.4 | 0.00 | 0.00 | 0.00 | 41 | 1022.8 |
| 20260831163558 | 17 | 52 | 3.2 | 6.4 | 0.00 | 0.00 | 0.00 | 45 | 1022.8 |
| 20260831163107 | 17 | 53 | 1.6 | 6.4 | 0.00 | 0.00 | 0.00 | 42 | 1022.8 |
| 20260831162559 | 17 | 53 | 1.6 | 6.4 | 0.00 | 0.00 | 0.00 | 42 | 1022.9 |
| 20260831162058 | 17 | 43 | 3.2 | 8.0 | 0.00 | 0.00 | 0.00 | 47 | 1022.9 |
| 20260831161608 | 16 | 34 | 3.2 | 8.0 | 0.00 | 0.00 | 0.00 | 47 | 1022.9 |
| 20260831161058 | 17 | 45 | 1.6 | 4.8 | 0.00 | 0.00 | 0.00 | 44 | 1022.9 |
| 20260831160558 | 16 | 52 | 0.0 | 4.8 | 0.00 | 0.00 | 0.00 | 47 | 1022.8 |
| 20260831160106 | 16 | 0 | 1.6 | 4.8 | 0.00 | 0.00 | 0.00 | 45 | 1022.9 |
| 20260831155601 | 15 | 47 | 0.0 | 4.8 | 0.00 | 0.00 | 0.00 | 45 | 1022.9 |
| 20260831155058 | 15 | 38 | 3.2 | 4.8 | 0.00 | 0.00 | 0.00 | 55 | 1022.9 |
| 20260831154627 | 14 | 0 | 0.0 | 3.2 | 0.00 | 0.00 | 0.00 | 58 | 1022.8 |
| 20260831154057 | 14 | 71 | 0.0 | 1.6 | 0.00 | 0.00 | 0.00 | 60 | 1022.8 |
| 20260831153601 | 13 | 0 | 0.0 | 1.6 | 0.00 | 0.00 | 0.00 | 61 | 1022.9 |
| 20260831153118 | 13 | 0 | 0.0 | 1.6 | 0.00 | 0.00 | 0.00 | 63 | 1023.0 |
| 20260831152558 | 12 | 95 | 0.0 | 1.6 | 0.00 | 0.00 | 0.00 | 66 | 1023.0 |
| 20260831152058 | 11 | 0 | 0.0 | 1.6 | 0.00 | 0.00 | 0.00 | 66 | 1022.9 |
| 20260831151613 | 11 | 86 | 0.0 | 1.6 | 0.00 | 0.00 | 0.00 | 69 | 1022.9 |
| 20260831151059 | 11 | 0 | 0.0 | 1.6 | 0.00 | 0.00 | 0.00 | 68 | 1022.9 |
| 20260831150559 | 10 | 0 | 0.0 | 1.6 | 0.00 | 0.00 | 0.00 | 71 | 1022.9 |
| 20260831150106 | 10 | 0 | 0.0 | 1.6 | 0.00 | 0.00 | 0.00 | 71 | 1022.9 |
| 20260831145559 | 10 | 0 | 0.0 | 0.0 | 0.00 | 0.00 | 0.00 | 72 | 1022.9 |
| 20260831145058 | 10 | 0 | 0.0 | 1.6 | 0.00 | 0.00 | 0.00 | 74 | 1022.9 |
| 20260831144605 | 8 | 0 | 0.0 | 1.6 | 0.00 | 0.00 | 0.00 | 76 | 1022.9 |
| 20260831144058 | 8 | 0 | 0.0 | 0.0 | 0.00 | 0.00 | 0.00 | 74 | 1023.0 |
| 20260831143558 | 7 | 0 | 0.0 | 1.6 | 0.00 | 0.00 | 0.00 | 76 | 1022.8 |
| 20260831143103 | 6 | 0 | 0.0 | 1.6 | 0.00 | 0.00 | 0.00 | 80 | 1022.8 |
| 20260831142558 | 5 | 0 | 0.0 | 1.6 | 0.00 | 0.00 | 0.00 | 82 | 1022.8 |
| 20260831142059 | 5 | 0 | 0.0 | 0.0 | 0.00 | 0.00 | 0.00 | 81 | 1022.8 |
| 20260831141606 | 5 | 0 | 0.0 | 0.0 | 0.00 | 0.00 | 0.00 | 81 | 1022.9 |
| 20260831141057 | 5 | 0 | 0.0 | 0.0 | 0.00 | 0.00 | 0.00 | 80 | 1022.9 |
| 20260831140558 | 5 | 0 | 0.0 | 1.6 | 0.00 | 0.00 | 0.00 | 80 | 1022.8 |
| 20260831140106 | 5 | 0 | 0.0 | 1.6 | 0.00 | 0.00 | 0.00 | 80 | 1022.7 |
| 20260831135559 | 5 | 0 | 0.0 | 1.6 | 0.00 | 0.00 | 0.00 | 80 | 1022.6 |
| 20260831135058 | 5 | 187 | 0.0 | 1.6 | 0.00 | 0.00 | 0.00 | 79 | 1022.6 |
| 20260831134614 | 5 | 0 | 0.0 | 1.6 | 0.00 | 0.00 | 0.00 | 79 | 1022.6 |
| 20260831134057 | 5 | 0 | 0.0 | 1.6 | 0.00 | 0.00 | 0.00 | 78 | 1022.6 |
| 20260831133557 | 5 | 0 | 0.0 | 0.0 | 0.00 | 0.00 | 0.00 | 79 | 1022.6 |
| 20260831133107 | 5 | 0 | 0.0 | 0.0 | 0.00 | 0.00 | 0.00 | 80 | 1022.6 |
| 20260831132557 | 5 | 0 | 0.0 | 1.6 | 0.00 | 0.00 | 0.00 | 80 | 1022.5 |
| 20260831132058 | 5 | 188 | 0.0 | 1.6 | 0.00 | 0.00 | 0.00 | 79 | 1022.5 |
| 20260831131601 | 5 | 174 | 0.0 | 1.6 | 0.00 | 0.00 | 0.00 | 79 | 1022.5 |
| 20260831131058 | 5 | 0 | 0.0 | 0.0 | 0.00 | 0.00 | 0.00 | 78 | 1022.6 |
| 20260831130558 | 5 | 0 | 0.0 | 0.0 | 0.00 | 0.00 | 0.00 | 77 | 1022.4 |
| 20260831130109 | 6 | 0 | 0.0 | 0.0 | 0.00 | 0.00 | 0.00 | 77 | 1022.4 |
| 20260831125558 | 6 | 0 | 0.0 | 0.0 | 0.00 | 0.00 | 0.00 | 77 | 1022.4 |
| 20260831125058 | 6 | 0 | 0.0 | 0.0 | 0.00 | 0.00 | 0.00 | 80 | 1022.4 |
| 20260831124608 | 5 | 0 | 0.0 | 0.0 | 0.00 | 0.00 | 0.00 | 78 | 1022.4 |
| 20260831124057 | 6 | 0 | 0.0 | 0.0 | 0.00 | 0.00 | 0.00 | 76 | 1022.5 |
| 20260831123558 | 6 | 0 | 0.0 | 0.0 | 0.00 | 0.00 | 0.00 | 75 | 1022.4 |
| 20260831123105 | 6 | 0 | 0.0 | 0.0 | 0.00 | 0.00 | 0.00 | 76 | 1022.4 |
| 20260831122601 | 6 | 0 | 0.0 | 1.6 | 0.00 | 0.00 | 0.00 | 76 | 1022.4 |
| 20260831122058 | 6 | 0 | 0.0 | 3.2 | 0.00 | 0.00 | 0.00 | 77 | 1022.4 |
| 20260831121632 | 6 | 0 | 0.0 | 3.2 | 0.00 | 0.00 | 0.00 | 76 | 1022.4 |
| 20260831121058 | 6 | 0 | 0.0 | 1.6 | 0.00 | 0.00 | 0.00 | 75 | 1022.5 |
| 20260831120601 | 6 | 0 | 0.0 | 1.6 | 0.00 | 0.00 | 0.00 | 76 | 1022.5 |
| 20260831120111 | 6 | 0 | 0.0 | 3.2 | 0.00 | 0.00 | 0.00 | 77 | 1022.6 |
| 20260831115557 | 6 | 0 | 0.0 | 3.2 | 0.00 | 0.00 | 0.00 | 76 | 1022.6 |
| 20260831115101 | 6 | 0 | 0.0 | 3.2 | 0.00 | 0.00 | 0.00 | 74 | 1022.6 |
| 20260831114605 | 6 | 0 | 0.0 | 1.6 | 0.00 | 0.00 | 0.00 | 75 | 1022.8 |
| 20260831114057 | 6 | 0 | 0.0 | 1.6 | 0.00 | 0.00 | 0.00 | 75 | 1022.6 |
| 20260831113557 | 6 | 0 | 0.0 | 1.6 | 0.00 | 0.00 | 0.00 | 75 | 1022.6 |
| 20260831113109 | 6 | 174 | 0.0 | 1.6 | 0.00 | 0.00 | 0.00 | 75 | 1022.7 |
| 20260831112558 | 6 | 0 | 0.0 | 1.6 | 0.00 | 0.00 | 0.00 | 76 | 1022.6 |
| 20260831112058 | 6 | 0 | 0.0 | 1.6 | 0.00 | 0.00 | 0.00 | 75 | 1022.7 |
| 20260831111604 | 6 | 0 | 0.0 | 0.0 | 0.00 | 0.00 | 0.00 | 76 | 1022.7 |
| 20260831111058 | 6 | 0 | 0.0 | 0.0 | 0.00 | 0.00 | 0.00 | 75 | 1022.7 |
| 20260831110558 | 7 | 0 | 0.0 | 0.0 | 0.00 | 0.00 | 0.00 | 77 | 1022.7 |
| 20260831110107 | 7 | 0 | 0.0 | 0.0 | 0.00 | 0.00 | 0.00 | 77 | 1022.6 |
| 20260831105622 | 7 | 0 | 0.0 | 0.0 | 0.00 | 0.00 | 0.00 | 77 | 1022.7 |
| 20260831105058 | 7 | 0 | 0.0 | 0.0 | 0.00 | 0.00 | 0.00 | 76 | 1022.8 |
| 20260831104605 | 7 | 0 | 0.0 | 0.0 | 0.00 | 0.00 | 0.00 | 77 | 1022.8 |
| 20260831104058 | 7 | 0 | 0.0 | 0.0 | 0.00 | 0.00 | 0.00 | 75 | 1022.8 |
| 20260831103559 | 7 | 0 | 0.0 | 0.0 | 0.00 | 0.00 | 0.00 | 74 | 1022.7 |
| 20260831103111 | 7 | 0 | 0.0 | 3.2 | 0.00 | 0.00 | 0.00 | 74 | 1022.8 |
| 20260831102557 | 7 | 174 | 0.0 | 3.2 | 0.00 | 0.00 | 0.00 | 73 | 1022.9 |
| 20260831102058 | 8 | 169 | 0.0 | 0.0 | 0.00 | 0.00 | 0.00 | 72 | 1022.9 |
| 20260831101604 | 8 | 0 | 0.0 | 0.0 | 0.00 | 0.00 | 0.00 | 73 | 1023.0 |
| 20260831101058 | 8 | 0 | 0.0 | 1.6 | 0.00 | 0.00 | 0.00 | 71 | 1022.9 |
| 20260831100556 | 8 | 0 | 0.0 | 3.2 | 0.00 | 0.00 | 0.00 | 69 | 1023.0 |
| 20260831100110 | 8 | 0 | 0.0 | 3.2 | 0.00 | 0.00 | 0.00 | 68 | 1022.9 |
| 20260831095557 | 8 | 0 | 0.0 | 3.2 | 0.00 | 0.00 | 0.00 | 67 | 1022.9 |
| 20260831095057 | 8 | 172 | 0.0 | 1.6 | 0.00 | 0.00 | 0.00 | 67 | 1022.9 |
| 20260831094608 | 8 | 0 | 0.0 | 1.6 | 0.00 | 0.00 | 0.00 | 66 | 1022.9 |
| 20260831094058 | 8 | 167 | 0.0 | 1.6 | 0.00 | 0.00 | 0.00 | 67 | 1022.9 |
| 20260831093557 | 8 | 0 | 0.0 | 1.6 | 0.00 | 0.00 | 0.00 | 66 | 1023.0 |
| 20260831093154 | 8 | 0 | 0.0 | 0.0 | 0.00 | 0.00 | 0.00 | 68 | 1023.0 |
| 20260831092558 | 8 | 0 | 0.0 | 0.0 | 0.00 | 0.00 | 0.00 | 67 | 1022.9 |
| 20260831092058 | 8 | 0 | 0.0 | 1.6 | 0.00 | 0.00 | 0.00 | 65 | 1022.9 |
| 20260831091606 | 8 | 0 | 0.0 | 1.6 | 0.00 | 0.00 | 0.00 | 63 | 1022.9 |
| 20260831091058 | 8 | 0 | 0.0 | 1.6 | 0.00 | 0.00 | 0.00 | 62 | 1022.9 |
| 20260831090558 | 9 | 0 | 0.0 | 0.0 | 0.00 | 0.00 | 0.00 | 64 | 1022.8 |
| 20260831090108 | 9 | 0 | 0.0 | 1.6 | 0.00 | 0.00 | 0.00 | 63 | 1022.8 |
| 20260831085558 | 9 | 0 | 0.0 | 3.2 | 0.00 | 0.00 | 0.00 | 63 | 1022.9 |
| 20260831085058 | 9 | 172 | 0.0 | 3.2 | 0.00 | 0.00 | 0.00 | 62 | 1023.1 |
| 20260831084652 | 9 | 170 | 0.0 | 1.6 | 0.00 | 0.00 | 0.00 | 62 | 1023.1 |
| 20260831084057 | 9 | 207 | 0.0 | 0.0 | 0.00 | 0.00 | 0.00 | 62 | 1023.2 |
| 20260831083557 | 10 | 0 | 0.0 | 0.0 | 0.00 | 0.00 | 0.00 | 61 | 1023.1 |
| 20260831083109 | 10 | 0 | 0.0 | 0.0 | 0.00 | 0.00 | 0.00 | 61 | 1023.1 |
| 20260831082601 | 10 | 0 | 0.0 | 0.0 | 0.00 | 0.00 | 0.00 | 61 | 1023.3 |
| 20260831082057 | 10 | 0 | 0.0 | 0.0 | 0.00 | 0.00 | 0.00 | 60 | 1023.2 |
| 20260831081610 | 10 | 0 | 0.0 | 4.8 | 0.00 | 0.00 | 0.00 | 60 | 1023.2 |
| 20260831081058 | 10 | 0 | 0.0 | 4.8 | 0.00 | 0.00 | 0.00 | 61 | 1023.4 |
| 20260831080559 | 10 | 255 | 0.0 | 4.8 | 0.00 | 0.00 | 0.00 | 60 | 1023.5 |
| 20260831080125 | 10 | 0 | 0.0 | 0.0 | 0.00 | 0.00 | 0.00 | 59 | 1023.3 |
| 20260831075558 | 10 | 0 | 0.0 | 4.8 | 0.00 | 0.00 | 0.00 | 58 | 1023.2 |
| 20260831075057 | 10 | 0 | 0.0 | 4.8 | 0.00 | 0.00 | 0.00 | 57 | 1023.3 |
| 20260831074605 | 10 | 143 | 0.0 | 4.8 | 0.00 | 0.00 | 0.00 | 56 | 1023.3 |
| 20260831074057 | 10 | 0 | 1.6 | 4.8 | 0.00 | 0.00 | 0.00 | 56 | 1023.5 |
| 20260831073557 | 10 | 176 | 0.0 | 3.2 | 0.00 | 0.00 | 0.00 | 58 | 1023.5 |
| 20260831073108 | 10 | 168 | 0.0 | 1.6 | 0.00 | 0.00 | 0.00 | 56 | 1023.5 |
| 20260831072600 | 10 | 0 | 0.0 | 1.6 | 0.00 | 0.00 | 0.00 | 58 | 1023.5 |
| 20260831072058 | 10 | 0 | 0.0 | 1.6 | 0.00 | 0.00 | 0.00 | 57 | 1023.5 |
| 20260831071612 | 10 | 0 | 0.0 | 1.6 | 0.00 | 0.00 | 0.00 | 58 | 1023.4 |
| 20260831071057 | 10 | 0 | 0.0 | 1.6 | 0.00 | 0.00 | 0.00 | 57 | 1023.5 |
| 20260831070557 | 10 | 0 | 0.0 | 1.6 | 0.00 | 0.00 | 0.00 | 58 | 1023.4 |
| 20260831070118 | 10 | 0 | 0.0 | 0.0 | 0.00 | 0.00 | 0.00 | 57 | 1023.4 |
| 20260831065557 | 10 | 0 | 0.0 | 3.2 | 0.00 | 0.00 | 0.00 | 57 | 1023.4 |
| 20260831065058 | 10 | 0 | 0.0 | 4.8 | 0.00 | 0.00 | 0.00 | 58 | 1023.5 |
| 20260831064606 | 10 | 170 | 1.6 | 4.8 | 0.00 | 0.00 | 0.00 | 57 | 1023.5 |
| 20260831064059 | 10 | 0 | 1.6 | 4.8 | 0.00 | 0.00 | 0.00 | 53 | 1023.4 |
| 20260831063558 | 11 | 257 | 1.6 | 4.8 | 0.00 | 0.00 | 0.00 | 54 | 1023.5 |
| 20260831063114 | 11 | 172 | 1.6 | 3.2 | 0.00 | 0.00 | 0.00 | 55 | 1023.5 |
| 20260831062559 | 11 | 167 | 0.0 | 3.2 | 0.00 | 0.00 | 0.00 | 53 | 1023.5 |
| 20260831062058 | 11 | 0 | 0.0 | 1.6 | 0.00 | 0.00 | 0.00 | 53 | 1023.4 |
| 20260831061605 | 11 | 0 | 0.0 | 3.2 | 0.00 | 0.00 | 0.00 | 52 | 1023.5 |
| 20260831061058 | 11 | 226 | 1.6 | 3.2 | 0.00 | 0.00 | 0.00 | 49 | 1023.2 |
| 20260831060557 | 11 | 164 | 0.0 | 3.2 | 0.00 | 0.00 | 0.00 | 48 | 1023.3 |
| 20260831060127 | 12 | 167 | 0.0 | 1.6 | 0.00 | 0.00 | 0.00 | 48 | 1023.1 |
| 20260831055602 | 12 | 0 | 0.0 | 1.6 | 0.00 | 0.00 | 0.00 | 46 | 1023.1 |
| 20260831055057 | 12 | 0 | 0.0 | 3.2 | 0.00 | 0.00 | 0.00 | 46 | 1022.9 |
| 20260831054608 | 12 | 0 | 0.0 | 3.2 | 0.00 | 0.00 | 0.00 | 46 | 1023.1 |
| 20260831054058 | 12 | 0 | 0.0 | 3.2 | 0.00 | 0.00 | 0.00 | 47 | 1023.0 |
| 20260831053557 | 12 | 0 | 0.0 | 0.0 | 0.00 | 0.00 | 0.00 | 45 | 1023.0 |
| 20260831053107 | 12 | 0 | 0.0 | 0.0 | 0.00 | 0.00 | 0.00 | 45 | 1023.0 |
| 20260831052558 | 12 | 0 | 0.0 | 1.6 | 0.00 | 0.00 | 0.00 | 46 | 1022.9 |
| 20260831052101 | 13 | 0 | 0.0 | 1.6 | 0.00 | 0.00 | 0.00 | 44 | 1023.0 |
| 20260831051604 | 13 | 0 | 0.0 | 1.6 | 0.00 | 0.00 | 0.00 | 43 | 1023.0 |
| 20260831051057 | 13 | 0 | 0.0 | 6.4 | 0.00 | 0.00 | 0.00 | 44 | 1023.1 |
| 20260831050557 | 13 | 176 | 0.0 | 6.4 | 0.00 | 0.00 | 0.00 | 44 | 1023.1 |
| 20260831050118 | 13 | 217 | 3.2 | 6.4 | 0.00 | 0.00 | 0.00 | 43 | 1023.2 |
| 20260831045558 | 13 | 231 | 0.0 | 3.2 | 0.00 | 0.00 | 0.00 | 43 | 1023.1 |
| 20260831045058 | 13 | 187 | 0.0 | 1.6 | 0.00 | 0.00 | 0.00 | 42 | 1023.2 |
| 20260831044610 | 13 | 179 | 0.0 | 1.6 | 0.00 | 0.00 | 0.00 | 43 | 1023.2 |
| 20260831044058 | 13 | 0 | 0.0 | 1.6 | 0.00 | 0.00 | 0.00 | 43 | 1023.3 |
| 20260831043559 | 13 | 0 | 0.0 | 1.6 | 0.00 | 0.00 | 0.00 | 43 | 1023.3 |
| 20260831043105 | 13 | 0 | 0.0 | 3.2 | 0.00 | 0.00 | 0.00 | 43 | 1023.3 |
| 20260831042600 | 14 | 0 | 0.0 | 3.2 | 0.00 | 0.00 | 0.00 | 44 | 1023.2 |
| 20260831042058 | 15 | 0 | 0.0 | 3.2 | 0.00 | 0.00 | 0.00 | 43 | 1023.3 |
| 20260831041607 | 15 | 0 | 0.0 | 1.6 | 0.00 | 0.00 | 0.00 | 41 | 1023.2 |
| 20260831041059 | 15 | 0 | 0.0 | 1.6 | 0.00 | 0.00 | 0.00 | 40 | 1023.1 |
| 20260831040559 | 15 | 0 | 0.0 | 1.6 | 0.00 | 0.00 | 0.00 | 40 | 1023.1 |
| 20260831040107 | 16 | 0 | 0.0 | 3.2 | 0.00 | 0.00 | 0.00 | 39 | 1023.1 |
| 20260831035557 | 16 | 176 | 0.0 | 3.2 | 0.00 | 0.00 | 0.00 | 40 | 1023.1 |
| 20260831035059 | 16 | 169 | 0.0 | 1.6 | 0.00 | 0.00 | 0.00 | 39 | 1023.1 |
| 20260831034613 | 17 | 0 | 0.0 | 8.0 | 0.00 | 0.00 | 0.00 | 38 | 1023.1 |
| 20260831034057 | 17 | 0 | 0.0 | 8.0 | 0.00 | 0.00 | 0.00 | 37 | 1022.9 |
| 20260831033601 | 17 | 0 | 3.2 | 8.0 | 0.00 | 0.00 | 0.00 | 36 | 1022.9 |
| 20260831033106 | 17 | 0 | 3.2 | 8.0 | 0.00 | 0.00 | 0.00 | 36 | 1022.7 |
| 20260831032558 | 18 | 53 | 4.8 | 14.5 | 0.00 | 0.00 | 0.00 | 36 | 1022.6 |
| 20260831032058 | 18 | 316 | 4.8 | 14.5 | 0.00 | 0.00 | 0.00 | 36 | 1022.5 |
| 20260831031607 | 18 | 56 | 3.2 | 11.3 | 0.00 | 0.00 | 0.00 | 37 | 1022.5 |
| 20260831031100 | 18 | 117 | 3.2 | 11.3 | 0.00 | 0.00 | 0.00 | 37 | 1022.4 |
| 20260831030600 | 18 | 68 | 6.4 | 12.9 | 0.00 | 0.00 | 0.00 | 37 | 1022.3 |
| 20260831030107 | 18 | 157 | 6.4 | 12.9 | 0.00 | 0.00 | 0.00 | 37 | 1022.2 |
| 20260831025558 | 18 | 160 | 3.2 | 9.7 | 0.00 | 0.00 | 0.00 | 37 | 1022.3 |
| 20260831025057 | 18 | 105 | 1.6 | 11.3 | 0.00 | 0.00 | 0.00 | 38 | 1021.9 |
| 20260831024605 | 18 | 20 | 4.8 | 11.3 | 0.00 | 0.00 | 0.00 | 37 | 1022.0 |
| 20260831024102 | 18 | 58 | 0.0 | 12.9 | 0.00 | 0.00 | 0.00 | 40 | 1021.8 |
| 20260831023557 | 18 | 0 | 4.8 | 12.9 | 0.00 | 0.00 | 0.00 | 39 | 1021.7 |
| 20260831023106 | 18 | 118 | 0.0 | 3.2 | 0.00 | 0.00 | 0.00 | 40 | 1021.7 |
| 20260831022558 | 19 | 48 | 0.0 | 3.2 | 0.00 | 0.00 | 0.00 | 38 | 1021.6 |
| 20260831022058 | 19 | 0 | 0.0 | 1.6 | 0.00 | 0.00 | 0.00 | 36 | 1021.6 |
| 20260831021609 | 19 | 0 | 0.0 | 0.0 | 0.00 | 0.00 | 0.00 | 34 | 1021.5 |
| 20260831021058 | 19 | 0 | 0.0 | 1.6 | 0.00 | 0.00 | 0.00 | 34 | 1021.5 |
| 20260831020557 | 20 | 0 | 0.0 | 3.2 | 0.00 | 0.00 | 0.00 | 35 | 1021.5 |
| 20260831020108 | 20 | 158 | 0.0 | 3.2 | 0.00 | 0.00 | 0.00 | 35 | 1021.4 |
| 20260831015557 | 21 | 0 | 0.0 | 1.6 | 0.00 | 0.00 | 0.00 | 33 | 1021.4 |
| 20260831015057 | 21 | 0 | 0.0 | 1.6 | 0.00 | 0.00 | 0.00 | 32 | 1021.5 |
| 20260831014623 | 21 | 0 | 0.0 | 1.6 | 0.00 | 0.00 | 0.00 | 30 | 1021.5 |
| 20260831014058 | 22 | 0 | 0.0 | 1.6 | 0.00 | 0.00 | 0.00 | 29 | 1021.5 |
| 20260831013558 | 22 | 0 | 0.0 | 4.8 | 0.00 | 0.00 | 0.00 | 23 | 1021.5 |
| 20260831013109 | 22 | 0 | 0.0 | 8.0 | 0.00 | 0.00 | 0.00 | 23 | 1021.5 |
| 20260831012558 | 22 | 0 | 3.2 | 8.0 | 0.00 | 0.00 | 0.00 | 23 | 1021.5 |
| 20260831012058 | 22 | 159 | 1.6 | 8.0 | 0.00 | 0.00 | 0.00 | 23 | 1021.6 |
| 20260831011609 | 23 | 243 | 1.6 | 8.0 | 0.00 | 0.00 | 0.00 | 23 | 1021.5 |
| 20260831011057 | 23 | 144 | 1.6 | 8.0 | 0.00 | 0.00 | 0.00 | 23 | 1021.7 |
| 20260831010601 | 23 | 163 | 4.8 | 9.7 | 0.00 | 0.00 | 0.00 | 23 | 1021.7 |
| 20260831010109 | 23 | 0 | 4.8 | 11.3 | 0.00 | 0.00 | 0.00 | 23 | 1021.6 |
| 20260831005557 | 22 | 152 | 3.2 | 11.3 | 0.00 | 0.00 | 0.00 | 23 | 1021.7 |
| 20260831005058 | 22 | 161 | 4.8 | 11.3 | 0.00 | 0.00 | 0.00 | 23 | 1021.7 |
| 20260831004627 | 22 | 184 | 4.8 | 11.3 | 0.00 | 0.00 | 0.00 | 24 | 1021.7 |
| 20260831004056 | 22 | 162 | 6.4 | 9.7 | 0.00 | 0.00 | 0.00 | 24 | 1021.7 |
| 20260831003600 | 22 | 148 | 4.8 | 8.0 | 0.00 | 0.00 | 0.00 | 24 | 1021.8 |
| 20260831003112 | 22 | 148 | 4.8 | 8.0 | 0.00 | 0.00 | 0.00 | 24 | 1021.7 |
| 20260831002557 | 22 | 120 | 1.6 | 9.7 | 0.00 | 0.00 | 0.00 | 24 | 1021.6 |
| 20260831002100 | 22 | 135 | 3.2 | 11.3 | 0.00 | 0.00 | 0.00 | 24 | 1021.8 |
| 20260831001633 | 22 | 124 | 4.8 | 11.3 | 0.00 | 0.00 | 0.00 | 24 | 1021.8 |
| 20260831001058 | 22 | 117 | 4.8 | 11.3 | 0.00 | 0.00 | 0.00 | 24 | 1021.7 |
| 20260831000558 | 22 | 155 | 6.4 | 16.1 | 0.00 | 0.00 | 0.00 | 23 | 1021.8 |
| 20260831000115 | 22 | 89 | 8.0 | 16.1 | 0.00 | 0.00 | 0.00 | 23 | 1021.7 |
| 20260830235559 | 22 | 138 | 9.7 | 16.1 | 0.00 | 0.00 | 0.00 | 23 | 1021.8 |
| 20260830235100 | 23 | 164 | 4.8 | 11.3 | 0.00 | 0.00 | 0.00 | 23 | 1021.9 |
| 20260830234613 | 23 | 133 | 3.2 | 11.3 | 0.00 | 0.00 | 0.00 | 23 | 1021.7 |
| 20260830234058 | 23 | 174 | 3.2 | 11.3 | 0.00 | 0.00 | 0.00 | 22 | 1021.8 |
| 20260830233558 | 23 | 143 | 6.4 | 11.3 | 0.00 | 0.00 | 0.00 | 22 | 1021.8 |
| 20260830233132 | 23 | 120 | 4.8 | 11.3 | 0.00 | 0.00 | 0.00 | 23 | 1021.8 |
| 20260830232558 | 23 | 155 | 1.6 | 11.3 | 0.00 | 0.00 | 0.00 | 21 | 1022.0 |
| 20260830232058 | 23 | 87 | 6.4 | 11.3 | 0.00 | 0.00 | 0.00 | 21 | 1021.9 |
| 20260830231614 | 23 | 159 | 3.2 | 12.9 | 0.00 | 0.00 | 0.00 | 22 | 1022.0 |
| 20260830231101 | 23 | 125 | 4.8 | 14.5 | 0.00 | 0.00 | 0.00 | 21 | 1021.9 |
| 20260830230559 | 23 | 139 | 1.6 | 20.9 | 0.00 | 0.00 | 0.00 | 22 | 1022.0 |
| 20260830230133 | 24 | 136 | 8.0 | 20.9 | 0.00 | 0.00 | 0.00 | 21 | 1022.0 |
| 20260830225557 | 24 | 130 | 4.8 | 14.5 | 0.00 | 0.00 | 0.00 | 22 | 1022.2 |
| 20260830225058 | 24 | 282 | 1.6 | 17.7 | 0.00 | 0.00 | 0.00 | 20 | 1022.2 |
| 20260830224615 | 23 | 63 | 4.8 | 17.7 | 0.00 | 0.00 | 0.00 | 21 | 1022.2 |
| 20260830224058 | 24 | 54 | 4.8 | 17.7 | 0.00 | 0.00 | 0.00 | 21 | 1022.3 |
| 20260830223558 | 23 | 101 | 0.0 | 16.1 | 0.00 | 0.00 | 0.00 | 22 | 1022.4 |
| 20260830223112 | 23 | 68 | 9.7 | 16.1 | 0.00 | 0.00 | 0.00 | 19 | 1022.4 |
| 20260830222558 | 23 | 61 | 6.4 | 16.1 | 0.00 | 0.00 | 0.00 | 21 | 1022.4 |
| 20260830222059 | 23 | 41 | 0.0 | 20.9 | 0.00 | 0.00 | 0.00 | 21 | 1022.6 |
| 20260830221607 | 23 | 42 | 6.4 | 20.9 | 0.00 | 0.00 | 0.00 | 20 | 1022.5 |
| 20260830221058 | 23 | 85 | 8.0 | 20.9 | 0.00 | 0.00 | 0.00 | 21 | 1022.6 |
| 20260830220558 | 23 | 107 | 11.3 | 20.9 | 0.00 | 0.00 | 0.00 | 20 | 1022.6 |
| 20260830220107 | 23 | 162 | 6.4 | 16.1 | 0.00 | 0.00 | 0.00 | 20 | 1022.6 |
| 20260830215557 | 24 | 149 | 6.4 | 22.5 | 0.00 | 0.00 | 0.00 | 21 | 1022.7 |
| 20260830215057 | 24 | 113 | 3.2 | 22.5 | 0.00 | 0.00 | 0.00 | 21 | 1022.8 |
| 20260830214607 | 24 | 77 | 8.0 | 19.3 | 0.00 | 0.00 | 0.00 | 21 | 1022.8 |
| 20260830214059 | 24 | 63 | 8.0 | 20.9 | 0.00 | 0.00 | 0.00 | 21 | 1022.7 |
| 20260830213558 | 24 | 174 | 9.7 | 24.1 | 0.00 | 0.00 | 0.00 | 20 | 1022.8 |